International Virtual Aviation Organisation

Russian Federation and Kazakhstan MCD

 

Карточка аэропорта USPP

Внимание!
Информация на этой странице в стадии наполнения.
Если вы не увидели какой-то информации, или заметили неточность - пожалуйста сообщите нам!
Спасибо!
Команда RU-STAFF
Название аэропортаБольшое Савино
Название аэропорта (англ.)Bolshoe Savino
Превышение404 ft. (123.1 m.)
Координаты57°55.866', 56°1.6019999999999'
Высота перехода1200m
Эшелон переходаQFE>749:FL60; 749>QFE>722:FL70; 722>QFE: FL80;
Коды ответчика5610-5617
Зона ОрВДЕкатеринбург РПИ (USSV)
Данные METARUSPP 051900Z 33002MPS 310V010 CAVOK 02/M06 Q1012 R21/090060 NOSIG RMK QFE748
Проноз погоды (TAF)USPP 051658Z 0518/0618 30003G08MPS 9999 BKN016 BECMG 0523/0524 35003G10MPS BECMG 0606/0608 SCT030
NOTAMshow/hide NOTAM
AWOS   TABLE

Информация о ВПП

ВПП Длина ВПП (м.) Покрытие Курс ВПП Частота ILS
213204Железобетон211109.9
033204Железобетон31 

Диспетчерские позиции

Позывной Наименование органа УВД Частота
USPP_TWRПермь-Старт124.000
USPP_APPПермь-Подход127.100



Спутниковое изображение